Fargo, ND

2:00 PM CDT on August 21, 2017 (GMT -0500)
Hector International

Weather History for KFAR - November, 2014

Change the Weather History Date:

Sunday, November 2, 2014

  Actual Average Record
Temperature  
Mean Temperature 48 °F 37 °F  
Max Temperature 57 °F 46 °F 73 °F (1978)
Min Temperature 39 °F 28 °F -7 °F (1951)
Degree Days  
Heating Degree Days 17 28  
Month to date heating degree days 42 55  
Since 1 July heating degree days 741 931  
Cooling Degree Days 0 0  
Month to date cooling degree days 0 0  
Year to date cooling degree days 544 551  
Moisture  
Dew Point 27 °F    
Average Humidity 47    
Maximum Humidity 58    
Minimum Humidity 35    
Precipitation  
Precipitation 0.00 in 0.03 in 0.59 in (1992)
Month to date precipitation 0.00 0.07  
Year to date precipitation 19.24 20.85  
Snow  
Snow 0.00 in 0.10 in 5.50 in (1992)
Month to date snowfall 0.0 0.2  
Since 1 July snowfall T 0.9  
Since 1 September snowfall T 0.9  
Snow Depth 0.00 in    
Sea Level Pressure  
Sea Level Pressure 29.82 in    
Wind  
Wind Speed 16 mph (SSE)    
Max Wind Speed 25 mph    
Max Gust Speed 34 mph    
Visibility 10 miles    
Events      
T = Trace of Precipitation, MM = Missing Value Source: NWS Daily Summary

Daily Weather History Graph

Daily Weather History Graph

Search for Another Location

Airport or City:

Trip Planner

Search our weather history database for the weather conditions in past years. The results will help you decide how hot, cold, wet, or windy it might be!

Date:

Astronomy

Nov. 02, 2014 Rise Set
Actual Time 7:11 AM CST 5:09 PM CST
Civil Twilight 6:39 AM CST 5:41 PM CST
Nautical Twilight 6:03 AM CST 6:17 PM CST
Astronomical Twilight 5:28 AM CST 6:52 PM CST
Moon 2:58 PM CST (11/2) 1:56 AM CST (11/2)
Length of Visible Light 11h 02m
Length of Day
9h 58m
Waxing Gibbous, 79% of the Moon is Illuminated
Nov 2
Waxing Gibbous
Nov 6
Full
Nov 14
Last Quarter
Nov 22
New
Nov 29
First Quarter

Hourly Weather History & Observations

Time (CST) Temp. Windchill Dew Point Humidity Pressure Visibility Wind Dir Wind Speed Gust Speed Precip Events Conditions
12:53 AM 39.9 °F 30.5 °F 21.0 °F 47% 29.92 in 10.0 mi SSE 19.6 mph 32.2 mph N/A   Clear
1:53 AM 39.9 °F 30.5 °F 21.9 °F 49% 29.91 in 10.0 mi SE 19.6 mph 29.9 mph N/A   Clear
1:53 AM 39.9 °F 30.8 °F 21.9 °F 49% 29.90 in 10.0 mi SSE 18.4 mph 28.8 mph N/A   Clear
2:53 AM 39.9 °F 30.2 °F 21.9 °F 49% 29.90 in 10.0 mi SSE 20.7 mph 29.9 mph N/A   Clear
3:53 AM 39.9 °F 30.5 °F 23.0 °F 51% 29.88 in 10.0 mi SSE 19.6 mph 29.9 mph N/A   Clear
4:53 AM 39.0 °F 29.6 °F 23.0 °F 53% 29.88 in 10.0 mi SSE 18.4 mph 27.6 mph N/A   Clear
5:53 AM 39.0 °F 29.6 °F 23.0 °F 53% 29.87 in 10.0 mi SSE 18.4 mph - N/A   Clear
6:53 AM 39.0 °F 29.9 °F 23.0 °F 53% 29.86 in 10.0 mi SSE 17.3 mph 25.3 mph N/A   Clear
7:53 AM 39.0 °F 29.3 °F 24.1 °F 55% 29.86 in 10.0 mi SSE 19.6 mph 28.8 mph N/A   Clear
8:53 AM 42.1 °F 33.9 °F 25.0 °F 51% 29.85 in 10.0 mi SSE 17.3 mph 26.5 mph N/A   Clear
9:53 AM 44.1 °F 36.2 °F 25.0 °F 47% 29.84 in 10.0 mi SSE 18.4 mph 26.5 mph N/A   Clear
10:53 AM 48.0 °F - 27.0 °F 44% 29.82 in 10.0 mi SSE 17.3 mph 25.3 mph N/A   Clear
11:53 AM 51.1 °F - 28.0 °F 41% 29.78 in 10.0 mi SSE 19.6 mph 26.5 mph N/A   Clear
12:53 PM 53.1 °F - 28.0 °F 38% 29.76 in 10.0 mi SSE 17.3 mph 26.5 mph N/A   Clear
1:53 PM 55.0 °F - 28.9 °F 37% 29.75 in 10.0 mi SSE 20.7 mph 28.8 mph N/A   Clear
2:53 PM 55.9 °F - 30.0 °F 37% 29.75 in 10.0 mi SSE 23.0 mph 28.8 mph N/A   Clear
3:53 PM 55.9 °F - 30.0 °F 37% 29.76 in 10.0 mi SSE 19.6 mph 29.9 mph N/A   Clear
4:53 PM 55.4 °F - 30.2 °F 38% 29.74 in 10.0 mi SSE 15.0 mph 25.3 mph N/A   Clear
5:53 PM 53.1 °F - 30.9 °F 43% 29.78 in 10.0 mi SSE 11.5 mph - N/A   Clear
6:53 PM 52.0 °F - 30.9 °F 45% 29.78 in 10.0 mi SSE 11.5 mph - N/A   Clear
7:53 PM 51.1 °F - 30.9 °F 46% 29.78 in 10.0 mi SSE 10.4 mph - N/A   Clear
8:53 PM 48.9 °F - 30.9 °F 50% 29.77 in 10.0 mi SSE 10.4 mph - N/A   Clear
9:53 PM 48.0 °F - 32.0 °F 54% 29.76 in 10.0 mi SSE 11.5 mph - N/A   Clear
10:53 PM 46.9 °F - 32.0 °F 56% 29.76 in 10.0 mi South 9.2 mph - N/A   Clear